TimeAKST,TemperatureF,Dew PointF,Humidity,Sea Level PressureIn,VisibilityMPH,Wind Direction,Wind SpeedMPH,Gust SpeedMPH,PrecipitationIn,Events,Conditions,WindDirDegrees,DateUTC
12:53 AM,36.0,33.1,89,29.35,5.0,WNW,15.0,-,0.00,Rain,Light Rain,290,2013-12-19 09:53:00
1:53 AM,36.0,33.1,89,29.44,10.0,WNW,10.4,17.3,0.00,Rain,Light Rain,290,2013-12-19 10:53:00
2:53 AM,37.0,33.1,86,29.49,8.0,WNW,12.7,25.3,0.00,Rain,Light Rain,300,2013-12-19 11:53:00
3:53 AM,36.0,34.0,93,29.55,4.0,WNW,11.5,-,0.00,Rain,Light Rain,290,2013-12-19 12:53:00
4:20 AM,35.6,33.8,93,29.56,7.0,WNW,8.1,-,0.01,Rain,Light Rain,290,2013-12-19 13:20:00
4:40 AM,35.6,33.8,93,29.57,6.0,WNW,10.4,-,0.01,Rain,Light Rain,300,2013-12-19 13:40:00
4:53 AM,36.0,34.0,93,29.58,9.0,WNW,9.2,-,0.01,Rain,Light Rain,300,2013-12-19 13:53:00
5:53 AM,36.0,34.0,93,29.60,10.0,NW,5.8,-,0.01,Rain,Light Rain,310,2013-12-19 14:53:00
6:53 AM,36.0,34.0,93,29.64,7.0,North,5.8,-,0.02,Rain,Light Rain,350,2013-12-19 15:53:00
7:53 AM,37.0,34.0,89,29.64,8.0,Variable,4.6,-,0.01,Rain,Light Rain,0,2013-12-19 16:53:00
8:53 AM,37.0,34.0,89,29.64,9.0,NE,8.1,-,0.01,Rain,Light Rain,40,2013-12-19 17:53:00
9:08 AM,37.4,33.8,87,29.63,10.0,NE,10.4,-,0.00,Rain,Light Rain,40,2013-12-19 18:08:00
9:53 AM,37.0,34.0,89,29.64,7.0,NE,12.7,-,0.01,,Overcast,50,2013-12-19 18:53:00
10:09 AM,37.4,35.6,93,29.64,5.0,NE,5.8,-,0.00,Rain,Light Rain,40,2013-12-19 19:09:00
10:53 AM,37.0,35.1,93,29.62,7.0,NE,6.9,-,0.00,,Overcast,50,2013-12-19 19:53:00
11:45 AM,37.4,35.6,93,29.65,2.5,East,8.1,-,0.00,Rain,Light Rain,80,2013-12-19 20:45:00
11:53 AM,37.9,36.0,93,29.65,3.0,ENE,9.2,-,0.00,Rain,Light Rain,60,2013-12-19 20:53:00
12:53 PM,37.9,36.0,93,29.64,3.0,ENE,8.1,-,0.00,Rain,Light Rain,70,2013-12-19 21:53:00
1:53 PM,37.9,36.0,93,29.60,3.0,NE,8.1,-,0.00,Rain,Light Rain,40,2013-12-19 22:53:00
2:53 PM,37.9,36.0,93,29.58,7.0,NE,5.8,-,0.01,Rain,Light Rain,50,2013-12-19 23:53:00
3:11 PM,37.4,35.6,93,29.56,7.0,NE,8.1,-,0.00,Rain,Light Rain,50,2013-12-20 00:11:00
3:53 PM,37.9,37.0,97,29.56,6.0,Calm,Calm,-,0.02,Rain,Light Rain,0,2013-12-20 00:53:00
4:53 PM,37.9,36.0,93,29.55,7.0,ENE,4.6,-,0.03,Rain,Light Rain,70,2013-12-20 01:53:00
5:53 PM,37.0,36.0,96,29.54,10.0,Calm,Calm,-,0.03,Rain,Light Rain,0,2013-12-20 02:53:00
6:53 PM,35.1,34.0,96,29.53,4.0,SW,3.5,-,0.01,Rain,Light Rain,220,2013-12-20 03:53:00
7:53 PM,35.1,35.1,100,29.55,4.0,SSW,4.6,-,0.01,,Overcast,210,2013-12-20 04:53:00
8:53 PM,36.0,35.1,97,29.56,4.0,Calm,Calm,-,0.02,Rain,Light Rain,0,2013-12-20 05:53:00
9:53 PM,35.1,35.1,100,29.55,4.0,West,3.5,-,0.00,Rain,Light Rain,280,2013-12-20 06:53:00
10:53 PM,35.1,34.0,96,29.57,4.0,West,3.5,-,0.00,Rain,Light Rain,260,2013-12-20 07:53:00
11:35 PM,35.6,35.6,100,29.59,10.0,SSW,6.9,-,0.00,,Overcast,200,2013-12-20 08:35:00
11:53 PM,36.0,35.1,97,29.60,10.0,WSW,4.6,-,0.00,,Overcast,240,2013-12-20 08:53:00